STARLINK-30999, 58551

Orbit data source: Space-Track

STARLINK-30999, 58551 is a payload satellite owned by SpaceX/Seattle (US) in LEO that was launched on Fri, 08 Dec 2023 UTC via an FALCON 9 launch vehicle from the Air Force Western Test Range (AFWTR). Payload-class satellites include a variety of spacecraft equipped with specific instruments for various scientific and technological missions. These include communications satellites like Starlink; space stations such as the ISS; scientific satellites like the Hubble; Earth observation satellites from companies like Planet Labs, Umbra, and HawkEye 360; GPS; miniature CubeSats for education and research; and military/defense satellites.

Loading next visibility...
Identifier
58551, 2023-192W
Orbit
LEO
Country
Flag of USUS
Related business
Manufacturer
SpaceX/Seattle
Mission
Operational Commercial Communications
Bus & Motor
STARLINK V2M, Unknown motor
Mass
730 kg wet, ~700 kg dry
Launch date (UTC)
2023-12-08 (3 years ago)
Launch vehicle
FALCON 9
Launch site
Air Force Western Test Range (AFWTR)
Object type
Payload
Rocket body
Debris
Shape & HBR
Box + 2 Pan, 17.7 m
Radar Cross Section
33.884 m², Large (>1 m²)

Expand to show TLE details & history
Last TLE update: 3 days ago

TLE from 3 days ago
0 STARLINK-30999
1 58551U 23192W   26170.64343382  .00001357  00000-0  57940-4 0  9995
2 58551  53.1618 299.2113 0001144  85.8866 274.2266 15.30197833141733
Epoch: 2026-06-19T15:26Z
TLE epoch observation values (Epoch: 2026-06-19T15:26:32.682Z)
Latitude
0.00004°
Longitude
159.70569°
Altitude
476.064 km
Speed
7.629 km/s
True Right ascension
19h 56m 50s
True Declination
0° 00' 00"
Sunlit
Object was in full shadow at epoch
Visualization orbit readout
Latitude
Unknown
Longitude
Unknown
Altitude
Unknown
Speed
Unknown
Apparent Right ascension
Unknown
Apparent Declination
Unknown
Sunlit
N/A
Visualization observer readout
Local Sidereal Time
21:30:39
Azimuth
Unknown
Elevation
Unknown
Doppler factor
Unknown
Orbital elements
Apogee altitude
476.262 km
Perigee altitude
474.694 km
Semi-major axis
6,853.615 km
Eccentricity
0.00011
Inclination
53.1618°
RAAN
299.2113°
Arg. of periapsis
85.8866°
True anomaly
274.21353°
Mean anomaly
274.2266°
Eccentric anomaly
274.22006°
Mean motion
3.82528 °/min
Orbital period
94.11 mins
BSTAR
0.00005794
Loading maneuver chart data...
Computing Atmospheric mass density...
Loading historical data...
Loading historical data...
Loading historical data...
Loading historical data...
Loading historical data...
Loading historical data...
Loading historical data...

Documentation

Showing up to 5 results
|